﻿Дата;Google;AdRiver
2020-02-21;1;0
2020-02-19;1;0
2020-02-18;1;0
2020-02-17;4;0
2020-02-16;4;0
2020-02-15;2;0
2020-02-14;3;0
2020-02-13;3;0
2020-02-12;2;0
2020-02-09;1;0
2020-02-01;2;0
2020-01-29;1;0
2020-01-20;1;0
2020-01-15;1;0
2020-01-11;1;0
2020-01-09;2;0
2020-01-08;1;0
2020-01-06;1;0
2020-01-05;1;0
2020-01-04;1;0
2020-01-03;4;0
2020-01-02;3;0
2020-01-01;6;0
2019-12-31;3;0
2019-12-30;7;0
2019-12-29;7;0
2019-12-28;1;0
2019-12-27;3;0
2019-12-25;1;0
2019-12-19;1;0
2019-12-18;7;0
2019-12-17;2;0
2019-12-16;4;0
2019-12-15;24;0
2019-12-14;7;0
2019-12-13;15;0
2019-12-12;33;0
2019-12-11;39;0
2019-12-10;12;0
2019-12-09;1;0
2019-12-08;22;0
2019-12-07;6;0
2019-12-06;6;0
2019-12-05;1;0
2019-12-02;1;0
2019-12-01;1;0
2019-11-22;1;0
2019-11-21;1;0
2019-11-13;1;0
2019-11-12;1;0
2019-11-11;19;0
2019-11-10;6;0
2019-11-09;1;0
2019-11-04;1;0
2019-11-03;1;0
2019-11-02;1;0
2019-11-01;8;0
2019-10-31;3;0
2019-10-30;2;0
2019-10-29;5;0
2019-10-28;10;0
2019-10-27;4;0
2019-10-26;3;0
2019-10-25;4;0
2019-10-24;1;0
2019-10-23;1;0
2019-10-21;5;0
2019-10-20;6;0
2019-10-19;5;0
2019-10-18;5;0
2019-10-17;3;0
2019-10-16;3;0
2019-10-15;1;0
2019-10-14;3;0
2019-10-13;6;0
2019-10-12;3;0
2019-10-11;6;0
2019-10-10;2;0
2019-10-09;6;0
2019-10-08;6;0
2019-10-07;3;0
2019-10-06;11;0
2019-10-05;9;0
2019-10-04;9;0
2019-10-03;3;0
2019-10-02;18;0
2019-10-01;10;0
2019-09-30;3;0
2019-09-29;3;0
2019-09-28;1;0
2019-09-27;4;0
2019-09-26;5;0
2019-09-25;7;0
2019-09-24;6;0
2019-09-23;9;0
2019-09-22;6;0
2019-09-21;5;0
2019-09-20;7;0
2019-09-19;5;0
2019-09-18;4;0
2019-09-17;4;0
2019-09-16;4;0
2019-09-15;6;0
2019-09-14;3;0
2019-09-13;3;0
2019-09-12;3;0
2019-09-11;9;0
2019-09-10;5;0
2019-09-09;5;0
2019-09-08;9;0
2019-09-07;5;0
2019-09-06;4;0
2019-09-05;7;0
2019-09-04;9;0
2019-09-03;10;0
2019-09-02;4;0
2019-09-01;6;0
2019-08-31;4;0
2019-08-30;4;0
2019-08-29;4;0
2019-08-27;4;0
2019-08-26;4;0
2019-08-25;1;0
2019-08-24;3;0
2019-08-23;3;0
2019-08-22;7;0
2019-08-21;8;0
2019-08-20;4;0
2019-08-19;4;0
2019-08-18;7;0
2019-08-17;6;0
2019-08-16;5;0
2019-08-15;8;0
2019-08-14;4;0
2019-08-13;2;0
2019-08-12;5;0
2019-08-11;7;0
2019-08-10;5;0
2019-08-09;3;0
2019-08-08;2;0
2019-08-07;5;0
2019-08-06;9;0
2019-08-05;3;0
2019-08-04;7;0
2019-08-03;3;0
2019-08-02;4;0
2019-08-01;5;0
2019-07-31;9;0
2019-07-30;5;0
2019-07-29;5;0
2019-07-28;8;0
2019-07-27;7;0
2019-07-26;2;0
2019-07-25;1;0
2019-07-24;6;0
2019-07-23;4;0
2019-07-22;6;0
2019-07-21;8;0
2019-07-20;2;0
2019-07-19;4;0
2019-07-18;1;0
2019-07-17;4;0
2019-07-16;3;0
2019-07-15;4;0
2019-07-14;2;0
2019-07-13;3;0
2019-07-12;4;0
2019-07-11;4;0
2019-07-10;8;0
2019-07-09;7;0
2019-07-08;5;0
2019-07-07;4;0
2019-07-06;3;0
2019-07-05;3;0
2019-07-04;2;0
2019-07-03;6;0
2019-07-02;7;0
2019-07-01;3;0
2019-06-30;6;0
2019-06-29;8;0
2019-06-28;10;0
2019-06-27;6;0
2019-06-26;3;0
2019-06-25;4;0
2019-06-24;7;0
2019-06-23;9;0
2019-06-22;9;0
2019-06-21;5;0
2019-06-20;5;0
2019-06-19;5;0
2019-06-18;3;0
2019-06-17;12;0
2019-06-16;3;0
2019-06-15;5;0
2019-06-14;3;0
2019-06-13;4;0
2019-06-12;2;0
2019-06-11;2;0
2019-06-10;3;0
2019-06-09;2;0
2019-06-08;5;0
2019-06-07;3;0
2019-06-06;3;0
2019-06-05;4;0
2019-06-04;4;0
2019-06-03;10;0
2019-06-02;5;0
2019-06-01;3;0
2019-05-31;4;0
2019-05-30;3;0
2019-05-29;5;0
2019-05-28;2;0
2019-05-27;7;0
2019-05-26;4;0
2019-05-25;6;0
2019-05-24;3;0
2019-05-23;5;0
2019-05-22;2;0
2019-05-21;3;0
2019-05-20;3;0
2019-05-19;6;0
2019-05-18;7;0
2019-05-17;2;0
2019-05-16;5;0
2019-05-14;4;0
2019-05-13;4;0
2019-05-12;3;0
2019-05-11;4;0
2019-05-10;4;0
2019-05-09;3;0
2019-05-08;2;0
2019-05-07;5;0
2019-05-06;3;0
2019-05-05;5;0
2019-05-04;2;0
2019-05-03;2;0
2019-05-02;2;0
2019-05-01;6;0
2019-04-30;4;0
2019-04-29;4;0
2019-04-28;2;0
2019-04-27;3;0
2019-04-26;1;0
2019-04-25;5;0
2019-04-24;2;0
2019-04-23;3;0
2019-04-22;1;0
2019-04-21;7;0
2019-04-20;4;0
2019-04-19;4;0
2019-04-18;3;0
2019-04-17;5;0
2019-04-16;4;0
2019-04-15;5;0
2019-04-14;5;0
2019-04-13;7;0
2019-04-12;5;0
2019-04-11;3;0
2019-04-10;7;0
2019-04-09;5;0
2019-04-08;2;0
2019-04-07;14;0
2019-04-06;8;0
2019-04-05;11;0
2019-04-04;3;0
2019-04-03;8;0
2019-04-02;15;0
2019-04-01;14;0
2019-03-31;11;0
2019-03-30;7;0
2019-03-29;2;0
2019-03-28;9;0
2019-03-27;7;0
2019-03-26;7;0
2019-03-25;9;0
2019-03-24;13;0
2019-03-23;8;0
2019-03-22;14;0
2019-03-21;7;0
2019-03-20;9;0
2019-03-19;3;0
2019-03-18;12;0
2019-03-17;10;0
2019-03-16;9;0
2019-03-15;9;0
2019-03-14;7;0
2019-03-13;3;0
2019-03-11;3;0
2019-03-10;9;0
2019-03-09;16;0
2019-03-08;9;0
2019-03-07;6;0
2019-03-06;10;0
2019-03-05;12;0
2019-03-04;9;0
2019-03-03;10;0
2019-03-02;12;0
2019-03-01;18;0
2019-02-28;20;0
2019-02-27;16;0
2019-02-26;6;0
2019-02-25;6;0
2019-02-24;7;0
2019-02-23;6;0
2019-02-22;15;0
2019-02-21;5;0
2019-02-20;18;0
2019-02-19;17;0
2019-02-18;13;0
2019-02-17;19;0
2019-02-16;14;0
2019-02-15;14;0
2019-02-14;10;0
2019-02-12;1;0
2019-02-05;1;0
2019-01-28;1;0
2019-01-25;1;0
2019-01-24;1;0
2019-01-21;1;0
2019-01-20;2;0
2019-01-19;1;0
2019-01-17;1;0
2019-01-16;1;0
2019-01-15;1;0
2019-01-14;1;0
2019-01-05;1;0
2019-01-04;1;0
2019-01-02;1;0
2019-01-01;1;0
2018-12-27;1;0
2018-12-14;1;0
2018-12-12;2;0
2018-12-07;2;0
2018-12-06;1;0
2018-12-05;1;0
2018-11-21;1;0
2018-11-18;1;0
2018-11-15;1;0
2018-11-09;1;0
2018-11-06;1;0
2018-11-01;2;0
2018-10-31;1;0
2018-10-27;3;0
2018-10-21;1;0
2018-10-18;1;0
2018-10-16;1;0
2018-10-12;2;0
2018-10-11;1;0
2018-10-08;1;0
2018-10-07;1;0
2018-10-04;1;0
2018-10-03;1;0
2018-10-02;1;0
2018-09-26;1;0
2018-09-16;1;0
2018-09-13;1;0
2018-09-09;1;0
2018-08-25;1;0
2018-08-04;1;0
2018-08-03;1;0
2018-07-29;1;0
2018-07-18;1;0
2018-07-12;1;0
2018-07-10;1;0
2018-06-24;1;0
2018-06-22;1;0
2018-06-06;1;0
2018-05-03;1;0
2018-04-12;1;0
2018-03-23;1;0
2018-03-18;1;0
2018-03-16;1;0
2018-02-08;1;0
2018-02-05;1;0
2017-11-14;1;0
2017-11-08;1;0
2017-11-07;1;0
2017-08-03;1;0
2017-06-14;1;0
2017-06-01;1;0
2017-05-26;1;0
2017-05-20;1;0
2017-05-19;1;0
2017-05-16;1;0
2017-04-19;1;0
2017-04-16;1;0
2017-04-10;1;0
2017-04-06;1;0
2017-04-05;1;0
2017-04-04;1;0
2017-04-01;1;0
2017-03-31;1;0
2017-03-30;1;0
2017-03-28;1;0
2017-03-23;2;0
2017-03-21;1;0
2017-03-20;1;0
2017-03-17;1;0
2017-03-15;2;0
2017-03-10;1;0
2017-03-07;1;0
2017-03-04;1;0
2017-03-03;1;0
2017-03-02;1;0
2017-03-01;1;0
2017-02-28;1;0
2017-02-26;1;0
2017-02-21;1;0
2017-02-20;2;0
2017-02-17;1;0
2017-02-12;1;0
2017-02-11;1;0
2017-02-10;2;0
2017-02-07;1;0
2017-01-31;1;0
2017-01-29;1;0
2017-01-27;2;0
2017-01-25;1;0
2017-01-24;2;0
2017-01-13;1;0
2017-01-11;1;0
2017-01-09;1;0
2017-01-06;2;0
2016-12-25;2;0
2016-12-24;1;0
2016-12-23;1;0
2016-12-19;1;0
2016-12-18;1;0
2016-12-11;2;0
2016-12-10;2;0
2016-12-09;1;0
2016-12-08;1;0
2016-12-04;1;0
2016-12-03;3;0
2016-12-02;2;0
2016-12-01;1;0
2016-11-26;1;0
2016-11-25;1;0
2016-11-23;1;0
2016-11-18;1;0
2016-11-16;1;0
2016-11-14;1;0
2016-11-12;1;0
2016-11-11;2;0
2016-11-09;1;0
2016-11-08;1;0
2016-11-07;1;0
2016-11-06;1;0
2016-11-05;1;0
2016-11-04;1;0
2016-11-02;1;0
2016-10-30;1;0
2016-10-25;1;0
2016-10-24;1;0
2016-10-13;1;0
2016-10-12;1;0
2016-10-11;1;0
2016-10-03;1;0
2016-09-29;1;0
2016-09-27;2;0
2016-09-24;1;0
2016-09-23;2;0
2016-09-21;1;0
2016-09-19;1;0
2016-09-18;1;0
2016-09-17;1;0
2016-09-10;1;0
2016-08-12;1;0
2016-08-09;1;0
2016-08-05;1;0
2016-08-03;1;0
2016-07-31;1;0
2016-07-28;1;0
2016-07-27;2;0
2016-07-24;1;0
2016-07-23;1;0
2016-07-22;1;0
2016-07-21;2;0
2016-07-20;1;0
2016-07-19;1;0
2016-07-18;4;0
2016-07-17;0;1
2016-07-16;1;0
2016-07-14;2;0
2016-07-13;1;0
2016-07-08;1;0
2016-06-26;1;0
2016-06-05;1;0
2016-05-30;1;0
2016-05-17;2;0
2016-05-16;1;0
2016-05-12;1;0
2016-05-11;2;0
2016-05-10;2;0
2016-05-09;2;0
2016-05-08;1;0
2016-05-07;1;0
2016-05-06;2;0
2016-05-04;1;1
2016-05-03;2;0
2016-05-02;2;0
2016-05-01;1;0
2016-04-29;1;0
2016-04-28;2;0
2016-04-27;2;0
2016-04-25;2;0
2016-04-24;1;0
2016-04-19;2;0
2016-04-16;1;0
2016-04-15;0;1
2016-04-13;1;0
2016-04-10;1;0
2016-04-09;0;1
2016-04-07;1;0
2016-04-01;1;1
2016-03-31;2;0
2016-03-28;2;0
2016-03-25;1;0
2016-03-21;1;0
2016-03-20;2;0
2016-03-18;0;1
2016-03-16;2;0
2016-03-13;1;0
2016-03-12;1;0
2016-03-04;1;0
2016-03-03;1;0
2016-03-02;1;0
2016-03-01;1;0
2016-02-16;1;0
2016-02-13;4;1
2016-02-12;1;0
2016-02-10;1;0
2016-02-09;2;0
2016-02-05;1;0
2016-02-04;1;0
2016-01-26;3;0
2016-01-24;2;0
2016-01-23;1;0
2016-01-22;1;0
2016-01-21;2;0
2016-01-20;1;0
2016-01-19;3;1
2016-01-16;1;0
2016-01-14;1;0
2016-01-13;2;0
2016-01-12;1;0
2016-01-11;2;0
2016-01-10;1;0
2016-01-09;1;0
2016-01-08;1;0
2016-01-07;1;0
2016-01-05;1;0
2016-01-03;1;0
2016-01-02;2;0
2015-12-31;1;0
2015-12-28;1;0
2015-12-25;1;0
2015-12-23;2;0
2015-12-22;1;0
2015-12-21;1;0
2015-12-19;1;0
2015-12-18;2;0
2015-12-17;1;0
2015-12-16;1;0
2015-12-12;1;0
2015-12-04;1;0
2015-11-27;1;0
2015-11-19;1;0
2015-11-18;1;0
2015-11-15;1;0
2015-11-13;1;0
2015-11-08;1;0
2015-11-07;1;0
2015-11-06;1;0
2015-11-02;1;0
2015-10-30;1;0
2015-10-27;1;0
2015-10-26;1;0
2015-10-25;1;0
2015-10-22;2;0
2015-10-20;1;0
2015-10-12;1;0
2015-10-10;1;0
2015-10-09;1;0
2015-10-08;1;0
2015-10-07;1;0
2015-10-06;3;0
2015-10-05;6;0
2015-10-04;1;0
2015-10-03;5;0
2015-10-02;4;0
2015-10-01;2;0
2015-09-30;2;0
2015-09-29;5;0
2015-09-28;1;0
2015-09-27;4;0
2015-09-26;3;0
2015-09-25;8;0
2015-09-24;6;0
2015-09-23;5;0
2015-09-22;9;0
2015-09-21;4;0
2015-09-20;1;0
2015-09-19;3;0
2015-09-18;5;0
2015-09-17;4;0
2015-09-16;5;0
2015-09-15;1;0
2015-09-14;2;0
2015-09-13;4;0
2015-09-12;1;0
2015-09-11;3;0
2015-09-10;5;0
2015-09-09;3;0
2015-09-08;1;0
2015-09-07;4;0
2015-09-06;6;0
2015-09-05;1;0
2015-09-03;3;0
2015-09-02;1;0
2015-09-01;2;0
2015-08-31;1;0
2015-08-30;1;0
2015-08-28;1;0
2015-08-23;1;0
2015-08-22;1;0
2015-08-11;1;0
